Location: Poughquag
(41.6090°N, 73.6820°W)
Time: 02:35:21
(UTC-04:00)

Transit 2A Rocket - Pass Details

Date: 06 June 2020
Orbit: 584 x 919 km, 66.7° (Epoch: 06 July)

Event Time Altitude Azimuth Distance (km) Brightness Sun altitude
Rises 22:15:47 0° 234° (SW) 3,088 8.2 -16.0°
Reaches altitude 10° 22:18:11 10° 243° (WSW) 2,227 7.5 -16.2°
Maximum altitude 22:22:54 37° 310° (NW) 1,210 6.6 -16.8°
Drops below altitude 10° 22:28:05 10° 17° (NNE) 2,447 8.1 -17.3°
Sets 22:30:52 0° 25° (NNE) 3,435 8.8 -17.6°
